Location: Bruneau Dunes Observatory
(42.9024°N, 115.6902°W)
Time: 10:56:44
(UTC-06:00)

Daily predictions for brighter satellites

Satellite Brightness Start Highest point End
(mag) Time Altitude Azimuth Time Altitude Azimuth Time Altitude Azimuth
Cosmos 1892 4.0 21:30:47 10° SSW 21:34:30 47° WNW 21:38:17 10° N
Cosmos 1782 Rocket 4.4 21:31:28 10° SSE 21:35:23 31° E 21:39:21 10° NNE
Cosmos 1242 Rocket 4.0 21:32:30 10° NNE 21:35:28 23° ENE 21:38:27 10° SE
USA 186 2.5 21:34:01 10° S 21:37:11 56° W 21:40:30 10° NNW
Cosmos 2074 Rocket 4.4 21:31:07 10° SSW 21:37:24 74° W 21:43:41 10° N
TIMED 4.5 21:33:17 10° SSW 21:37:39 80° ESE 21:42:03 10° NNE
COS B Rocket 3.9 21:36:29 10° NNE 21:40:05 34° E 21:43:17 10° SSE
Coronas F rocket 4.1 21:39:00 10° SW 21:41:12 23° WNW 21:43:25 10° NNW
Resurs 01 Rocket 4.3 21:39:52 10° SW 21:42:55 18° W 21:46:00 10° NW
Cosmos 1862 3.5 21:39:41 10° S 21:43:39 54° E 21:47:39 10° NNE
GPS 2-05 Rocket1 4.3 21:40:34 10° WSW 21:43:44 26° S 21:46:52 10° ESE
Cosmos 1174 4.1 21:41:10 10° NW 21:44:13 43° WSW 21:47:02 10° S
ALOS 3.4 21:40:38 10° S 21:45:07 46° W 21:49:38 10° NNW
Sich 1 Rocket 3.7 21:41:14 10° S 21:45:49 88° E 21:50:25 10° N
Cosmos 676 Rocket 4.2 21:40:56 10° NNW 21:46:09 79° WSW 21:51:22 10° SSE
USA 229 DEB 4.4 21:40:48 10° NNW 21:47:35 45° NE 21:54:24 10° ESE
USA 229 4.4 21:40:54 10° NNW 21:47:41 45° NE 21:54:29 10° ESE
YAOGAN 6 4.3 21:45:29 10° ESE 21:47:54 18° ENE 21:50:19 10° NNE
Lacrosse 5 rocket 3.1 21:47:37 10° SE 21:48:30 11° ESE 21:49:23 10° ESE
Cosmos 1954 Rocket 4.0 21:43:19 10° NNW 21:48:34 85° ENE 21:53:49 10° SSE
EO 1 Delta rocket 4.5 21:43:01 10° NNE 21:48:39 46° E 21:53:19 10° SSE
Cosmos 1975 Rocket 3.5 21:44:40 10° N 21:48:48 42° ENE 21:52:56 10° SSE
OAO 3 Rocket 4.4 21:45:10 10° SW 21:49:14 25° SSE 21:53:16 10° ESE
Cosmos 1408 2.7 21:46:28 10° S 21:50:01 52° E 21:53:34 10° NNE
H-2A R/B 4.3 21:49:19 10° SSW 21:52:45 36° W 21:56:14 10° NNW
SJ-11-01 4.3 21:49:50 10° SSE 21:54:35 88° ENE 21:59:21 10° NNW
Nadezhda 3 Rocket 4.1 21:48:12 10° N 21:54:36 78° E 22:00:58 10° SSE
ARGOS 4.5 21:50:46 10° ESE 21:54:55 24° ENE 21:59:05 10° NNE
ATLAS 5 CENTAUR R/B 4.5 21:50:23 10° WNW 21:55:04 23° WSW 21:59:56 10° SSW
DNEPR-1 R/B 3.9 21:50:54 10° NNW 21:56:23 75° NE 22:00:37 12° SE
Cosmos 1378 Rocket 3.5 21:52:24 10° N 21:56:44 81° E 22:01:04 10° S
Cosmos 1908 Rocket 3.7 21:55:15 10° S 21:59:40 84° W 22:04:09 10° N
Cosmos 1023 Rocket 4.5 21:55:19 10° NNW 22:00:27 74° ENE 22:05:35 10° SSE
Meteor 1-27 Rocket 3.9 21:55:52 10° NNW 22:01:26 78° W 22:06:55 10° S
Gbstr 26 Del rocket 4.5 22:00:05 10° NW 22:05:20 39° NNE 22:09:39 10° E
Cosmos 1782 4.5 22:02:00 10° NNW 22:05:42 35° W 22:09:23 10° SSW
Cosmos 1741 Rocket 4.1 22:01:41 10° NNW 22:06:53 61° ENE 22:11:26 13° SE
Nimbus 7 Rocket 4.4 22:07:13 10° NNE 22:13:09 63° ESE 22:19:05 10° S
Cosmos 1825 2.4 22:10:17 10° SSW 22:14:05 73° W 22:17:55 10° N
MetOp-A 4.3 22:12:39 13° SSE 22:17:20 59° ENE 22:22:36 10° N
deb Chang Zheng 4 3.6 22:14:11 10° NNE 22:18:38 83° ESE 22:23:05 10° SSW
Cosmos 614 Rocket 3.9 22:13:55 10° NNW 22:19:00 71° ENE 22:23:01 16° SSE
Envisat 3.1 22:15:49 10° S 22:20:53 80° WSW 22:26:00 10° NNW
ISS -1.7 22:17:56 10° W 22:20:59 36° NNW 22:24:02 10° NE
Cosmos 1833 Rocket 3.0 22:17:24 10° NNW 22:22:54 51° ENE 22:26:48 19° SE
Terra 3.6 22:23:26 13° E 22:25:45 17° ENE 22:28:50 10° NNE
USA 245 4.0 22:23:58 21° SE 22:26:00 40° ENE 22:30:13 10° N
Cosmos 2341 Rocket 4.2 22:21:15 10° SSW 22:27:32 78° W 22:33:49 10° N
H-2A R/B 2.3 22:23:57 10° S 22:28:10 67° WSW 22:32:22 10° NNW
Abrixas 2.7 22:25:20 10° SW 22:28:16 46° SSE 22:30:25 16° ENE
ERS-1 Rocket 4.0 22:24:52 10° S 22:29:40 45° W 22:34:31 10° NNW
SL-8 Rocket 4.0 22:24:05 10° S 22:30:16 67° E 22:36:27 10° NNE
COSMOS 2487 4.2 22:27:20 10° NW 22:30:31 30° WSW 22:33:42 10° SSW
Okean 3 4.2 22:26:40 10° NNW 22:30:50 53° W 22:34:57 10° S
Cosmos 1939 Rocket 3.8 22:27:22 10° S 22:31:07 46° W 22:34:56 10° NNW
Cosmos 2278 Rocket 3.0 22:26:21 10° SW 22:31:54 55° WNW 22:37:31 10° NNE
Cosmos 1420 Rocket 4.3 22:29:15 10° SSW 22:34:28 71° WNW 22:39:42 10° NNE
Cosmos 1140 Rocket 4.1 22:31:06 10° NNW 22:36:06 53° WSW 22:40:45 12° S
Cosmos 2151 Rocket 3.8 22:34:16 18° SSE 22:37:25 52° E 22:41:50 10° NNE
APEX 4.1 22:36:12 10° SW 22:40:16 66° WNW 22:45:39 10° NNE
Cosmos 1238 Rocket 4.2 22:37:30 10° NNW 22:40:41 33° W 22:44:22 10° SSW
Timation 2 Rocket 4.3 22:38:27 10° NW 22:44:18 56° WSW 22:49:05 15° S
CZ-4B R/B 3.5 22:40:25 10° NNE 22:45:14 53° E 22:48:15 21° S
Okean 1 4.4 22:41:45 10° NNE 22:45:20 29° ENE 22:46:23 26° ESE
SPOT 5 3.4 22:42:02 14° S 22:46:40 67° WSW 22:52:01 10° NNW
Cosmos 1812 3.4 22:45:50 10° N 22:49:28 37° ENE 22:50:23 32° ESE
Cosmos 2082 Rocket 2.3 22:45:24 10° NNW 22:51:06 78° WSW 22:54:41 24° SSE
Okean 1 Rocket 4.1 22:51:03 26° ESE 22:51:43 27° E 22:55:27 10° NNE
Lacrosse 5 2.3 22:53:13 10° SSW 22:57:56 39° SE 23:02:39 10° ENE
Cosmos 864 Rocket 4.4 22:54:13 16° S 22:59:17 77° E 23:05:28 10° N
CZ-3C R/B 4.2 22:52:19 10° SW 23:02:50 16° SSW 23:06:05 14° S
H-2A R/B 2.5 23:01:29 30° SE 23:03:42 47° ENE 23:08:45 10° N
Meteor 1-18 Rocket 4.3 23:01:46 10° N 23:07:43 90° WNW 23:11:06 27° S
Okean 1-7 Rocket 4.1 23:07:17 10° N 23:11:33 42° ENE 23:12:23 38° ESE
Cosmos 2366 rocket 4.1 23:06:49 13° S 23:12:33 81° W 23:18:56 10° N
NOAA 11 4.2 23:10:17 28° S 23:13:19 78° WSW 23:18:51 10° NNW
Cosmos 1302 Rocket 4.4 23:12:31 37° SE 23:13:35 41° ESE 23:18:33 10° NE
BREEZE-M DEB (TANK) 3.4 23:07:29 10° WNW 23:16:57 45° SW 23:18:14 34° S
SPOT 1/Viking Rocket 4.0 23:16:35 25° S 23:19:29 59° W 23:24:40 10° NNW
YAOGAN 6 4.2 23:19:45 20° SW 23:21:17 28° W 23:24:23 10° NW
ASTEX 1 3.8 23:18:33 10° NNE 23:23:17 42° E 23:23:57 40° ESE
Lacrosse 5 rocket 1.0 23:23:17 10° SW 23:27:13 89° NNW 23:30:59 10° NE
CARTOSAT-1 3.6 23:26:57 55° SE 23:27:40 66° ENE 23:31:58 10° N
OAO 3 Rocket 4.3 23:27:45 10° WSW 23:31:09 30° SSW 23:31:09 30° SSW
SL-08 RB Rocket 4.3 23:31:55 34° SSW 23:33:37 53° W 23:38:11 10° NNW
ARGOS 3.8 23:32:08 27° SSW 23:34:49 49° W 23:40:02 10° NNW
CZ-4 R/B 4.1 23:31:30 10° N 23:36:07 65° WNW 23:38:29 28° SW
Cosmos 2369 Rocket 2.7 23:37:36 37° ESE 23:37:36 37° ESE 23:42:40 10° NE
USA 229 DEB 4.4 23:31:54 10° NW 23:38:35 45° WSW 23:41:54 28° S
USA 229 4.4 23:31:59 10° NW 23:38:42 46° WSW 23:41:59 28° S
Meteor 1-11 Rocket 3.9 23:38:45 46° SE 23:40:08 58° E 23:45:47 10° NNE
Cosmos 1000 Rocket 4.4 23:38:42 10° N 23:44:59 75° E 23:46:58 46° SSE
SAR-Lupe-2 4.1 23:46:11 50° NE 23:46:11 50° NE 23:49:10 10° N
IGS 5A 3.3 23:45:34 80° SSE 23:45:48 90° W 23:49:59 10° NNW
Landsat 7 4.2 23:46:06 43° SSW 23:47:20 57° W 23:52:02 10° NNW
CZ-4C R/B 3.8 23:47:48 50° SW 23:48:15 53° W 23:52:22 10° NNW
Cosmos 2239 Rocket 4.5 23:49:37 47° SSE 23:51:25 68° E 23:57:41 10° NNE
Gbstr 26 Del rocket 3.1 23:47:44 10° WNW 23:52:37 65° SW 23:52:37 65° SW
Cosmos 1892 Rocket 4.4 23:50:08 10° N 23:53:58 38° ENE 23:53:58 38° ENE
Cosmos 1400 Rocket 3.2 23:55:34 58° NE 23:55:34 58° NE 23:59:08 10° NNE
